ARABSAT-7B (BADR-8)

Last updated on Sun Jun 21 2026 00:03:09 GMT+0000 (Coordinated Universal Time)

1 56757U 23075A 26170.82685197 .00000139 00000+0 00000+0 0 9990 2 56757 0.0749 27.8208 0004455 357.9211 205.9741 1.00269503 11146
UTC large
Height (km)
Speed (km/s)
/
Latitude / Longitude
Inclination (degrees)
Orbital Period (minutes)
Azimuth
Elevation
Range (km)
Doppler Factor

Next 0 passes for location: London (51.5072 / 0.1276)

No passes found over London.
ARABSAT-7B (BADR-8)